SVR2029 USSS-UWGG

Flight info

Callsign SVR2029
Flight time N/A
Altitude 34000
Route UMTEK6H UMTEK DCT LUNAG DCT INGEN DCT KERUN DCT KAMZA DCT UMPER DCT GILAM GILAM2N
Aircraft A321/M-SDE3FGHIRWY/LB1

Departure

Time N/A
Airport Koltsovo Airport (USSS)

Arrival

Time 2026-04-25 17:39
Airport Nizhny Novgorod / Strigino International Airport (UWGG)
Time Latitude Longitude Altitude Speed Heading
2026-04-25 16:14 56.82645 59.49998 20522 ft 367 kts 271°
2026-04-25 16:15 56.82819 59.46925 20802 ft 369 kts 270°
2026-04-25 16:15 56.83081 59.42256 21217 ft 371 kts 270°
2026-04-25 16:15 56.83428 59.36023 21747 ft 374 kts 270°
2026-04-25 16:15 56.83690 59.31293 22182 ft 376 kts 270°
2026-04-25 16:16 56.83952 59.26535 22646 ft 377 kts 270°
2026-04-25 16:16 56.84217 59.21760 23070 ft 379 kts 270°
2026-04-25 16:16 56.84394 59.18520 23322 ft 381 kts 270°
2026-04-25 16:16 56.84736 59.12122 23739 ft 384 kts 270°
2026-04-25 16:17 56.84989 59.07260 24063 ft 386 kts 269°
2026-04-25 16:17 56.85121 59.04017 24275 ft 386 kts 268°
2026-04-25 16:17 56.85258 58.99107 24626 ft 388 kts 268°
2026-04-25 16:17 56.85344 58.94178 24946 ft 390 kts 267°
2026-04-25 16:18 56.85409 58.89222 25249 ft 392 kts 267°
2026-04-25 16:18 56.85450 58.85845 25456 ft 393 kts 267°
2026-04-25 16:18 56.85538 58.79204 25850 ft 397 kts 267°
2026-04-25 16:18 56.85612 58.74158 26150 ft 399 kts 267°
2026-04-25 16:19 56.85693 58.69069 26437 ft 401 kts 267°
2026-04-25 16:19 56.85778 58.63958 26721 ft 404 kts 267°
2026-04-25 16:19 56.85863 58.58810 26992 ft 406 kts 267°
2026-04-25 16:20 56.86028 58.48444 27539 ft 411 kts 267°
2026-04-25 16:20 56.86104 58.43212 27810 ft 413 kts 267°
2026-04-25 16:20 56.86245 58.32672 28333 ft 417 kts 267°
2026-04-25 16:21 56.86312 58.27367 28575 ft 419 kts 267°
2026-04-25 16:21 56.86379 58.22101 28813 ft 421 kts 267°
2026-04-25 16:21 56.86447 58.16741 29052 ft 423 kts 267°
2026-04-25 16:21 56.86512 58.11343 29280 ft 425 kts 267°
2026-04-25 16:22 56.86575 58.05930 29503 ft 427 kts 267°
2026-04-25 16:22 56.86637 58.00493 29703 ft 429 kts 267°
2026-04-25 16:22 56.86697 57.95042 29900 ft 431 kts 267°
2026-04-25 16:22 56.86752 57.89549 30025 ft 433 kts 268°
2026-04-25 16:23 56.86807 57.84026 30143 ft 436 kts 268°
2026-04-25 16:23 56.86862 57.78478 30281 ft 437 kts 268°
2026-04-25 16:23 56.86915 57.72921 30469 ft 437 kts 268°
2026-04-25 16:23 56.86967 57.67362 30676 ft 437 kts 268°
2026-04-25 16:24 56.87013 57.61811 30883 ft 437 kts 268°
2026-04-25 16:24 56.87056 57.56257 31072 ft 437 kts 268°
2026-04-25 16:24 56.87098 57.50703 31266 ft 437 kts 268°
2026-04-25 16:24 56.87138 57.45146 31467 ft 438 kts 268°
2026-04-25 16:25 56.87175 57.39582 31674 ft 437 kts 267°
2026-04-25 16:25 56.87196 57.35888 31807 ft 438 kts 267°
2026-04-25 16:25 56.87237 57.28459 32074 ft 437 kts 267°
2026-04-25 16:25 56.87263 57.22893 32274 ft 437 kts 267°
2026-04-25 16:26 56.87286 57.17410 32475 ft 437 kts 268°
2026-04-25 16:26 56.87308 57.11855 32681 ft 437 kts 268°
2026-04-25 16:26 56.87328 57.06306 32881 ft 437 kts 268°
2026-04-25 16:26 56.87346 57.00759 33081 ft 437 kts 267°
2026-04-25 16:27 56.87361 56.95203 33271 ft 437 kts 267°
2026-04-25 16:27 56.87373 56.89657 33477 ft 437 kts 268°
2026-04-25 16:27 56.87383 56.84103 33596 ft 436 kts 268°
2026-04-25 16:28 56.87392 56.73105 33612 ft 431 kts 267°
2026-04-25 16:28 56.87394 56.62173 33612 ft 430 kts 267°
2026-04-25 16:29 56.87396 56.51246 33619 ft 430 kts 268°
2026-04-25 16:29 56.87383 56.40334 33603 ft 429 kts 268°
2026-04-25 16:30 56.87358 56.31266 33604 ft 429 kts 268°
2026-04-25 16:30 56.87323 56.18585 33604 ft 429 kts 268°
2026-04-25 16:31 56.87279 56.07677 33605 ft 429 kts 267°
2026-04-25 16:31 56.87226 55.96762 33594 ft 429 kts 267°
2026-04-25 16:32 56.87167 55.85857 33596 ft 429 kts 267°
2026-04-25 16:32 56.87098 55.74948 33609 ft 429 kts 268°
2026-04-25 16:33 56.87017 55.64037 33603 ft 429 kts 268°
2026-04-25 16:33 56.86924 55.53129 33594 ft 430 kts 268°
2026-04-25 16:34 56.86823 55.42208 33592 ft 430 kts 268°
2026-04-25 16:34 56.86710 55.31289 33592 ft 430 kts 268°
2026-04-25 16:35 56.86584 55.20447 33592 ft 430 kts 268°
2026-04-25 16:35 56.86458 55.09524 33584 ft 430 kts 268°
2026-04-25 16:36 56.86329 54.98604 33586 ft 429 kts 268°
2026-04-25 16:36 56.86177 54.87702 33588 ft 429 kts 268°
2026-04-25 16:37 56.86010 54.76805 33596 ft 429 kts 268°
2026-04-25 16:37 56.85844 54.65905 33602 ft 429 kts 268°
2026-04-25 16:38 56.85671 54.55012 33597 ft 429 kts 268°
2026-04-25 16:38 56.85484 54.44191 33594 ft 429 kts 268°
2026-04-25 16:39 56.85290 54.33258 33591 ft 428 kts 268°
2026-04-25 16:39 56.85087 54.22475 33590 ft 427 kts 268°
2026-04-25 16:40 56.84871 54.11639 33591 ft 427 kts 268°
2026-04-25 16:40 56.84643 54.00810 33590 ft 427 kts 268°
2026-04-25 16:41 56.84416 53.89978 33588 ft 427 kts 268°
2026-04-25 16:41 56.84048 53.73737 33589 ft 427 kts 268°
2026-04-25 16:42 56.83791 53.62919 33590 ft 426 kts 268°
2026-04-25 16:42 56.83528 53.52108 33595 ft 426 kts 268°
2026-04-25 16:43 56.83300 53.41311 33593 ft 425 kts 269°
2026-04-25 16:43 56.83363 53.30599 33590 ft 425 kts 272°
2026-04-25 16:44 56.83532 53.19818 33595 ft 424 kts 271°
2026-04-25 16:44 56.83642 53.09056 33590 ft 424 kts 271°
2026-04-25 16:45 56.83693 52.98290 33570 ft 424 kts 271°
2026-04-25 16:45 56.83733 52.87544 33572 ft 423 kts 271°
2026-04-25 16:46 56.83776 52.76803 33576 ft 423 kts 271°
2026-04-25 16:46 56.83799 52.69689 33580 ft 423 kts 271°
2026-04-25 16:47 56.83826 52.55321 33573 ft 423 kts 271°
2026-04-25 16:47 56.83836 52.44642 33576 ft 424 kts 271°
2026-04-25 16:48 56.83841 52.33879 33579 ft 424 kts 271°
2026-04-25 16:48 56.83832 52.23122 33563 ft 424 kts 271°
2026-04-25 16:49 56.83820 52.12356 33571 ft 424 kts 271°
2026-04-25 16:49 56.83797 52.01604 33580 ft 424 kts 271°
2026-04-25 16:50 56.83753 51.90843 33586 ft 424 kts 271°
2026-04-25 16:50 56.83699 51.80084 33591 ft 424 kts 271°
2026-04-25 16:51 56.83650 51.69329 33602 ft 423 kts 271°
2026-04-25 16:51 56.83615 51.62207 33610 ft 423 kts 271°
2026-04-25 16:52 56.83473 51.47832 33612 ft 423 kts 270°
2026-04-25 16:52 56.83182 51.37086 33620 ft 424 kts 269°
2026-04-25 16:53 56.82678 51.21064 33618 ft 423 kts 269°
2026-04-25 16:54 56.82367 51.10341 33614 ft 423 kts 269°
2026-04-25 16:54 56.82058 50.99628 33615 ft 422 kts 269°
2026-04-25 16:55 56.81729 50.88935 33614 ft 422 kts 269°
2026-04-25 16:55 56.81393 50.78242 33595 ft 422 kts 269°
2026-04-25 16:56 56.81061 50.67565 33612 ft 421 kts 269°
2026-04-25 16:56 56.80709 50.56902 33617 ft 421 kts 269°
2026-04-25 16:57 56.80343 50.46248 33630 ft 420 kts 269°
2026-04-25 16:57 56.79973 50.35603 33633 ft 420 kts 269°
2026-04-25 16:58 56.79600 50.24975 33624 ft 420 kts 269°
2026-04-25 16:58 56.79212 50.14411 33626 ft 420 kts 269°
2026-04-25 16:59 56.78810 50.03779 33603 ft 420 kts 269°
2026-04-25 16:59 56.78406 49.93167 33614 ft 419 kts 269°
2026-04-25 17:00 56.77994 49.82554 33618 ft 419 kts 269°
2026-04-25 17:00 56.77568 49.71954 33624 ft 419 kts 269°
2026-04-25 17:01 56.77136 49.61365 33625 ft 419 kts 269°
2026-04-25 17:01 56.76698 49.50772 33623 ft 419 kts 269°
2026-04-25 17:02 56.76247 49.40177 33622 ft 419 kts 269°
2026-04-25 17:02 56.75789 49.29599 33614 ft 418 kts 268°
2026-04-25 17:03 56.75323 49.19044 33628 ft 418 kts 268°
2026-04-25 17:03 56.74849 49.08566 33635 ft 417 kts 268°
2026-04-25 17:04 56.74368 48.98047 33635 ft 417 kts 268°
2026-04-25 17:04 56.73871 48.87523 33633 ft 416 kts 268°
2026-04-25 17:05 56.73370 48.77019 33635 ft 416 kts 268°
2026-04-25 17:05 56.72610 48.61286 33628 ft 415 kts 267°
2026-04-25 17:06 56.72301 48.50838 33641 ft 412 kts 272°
2026-04-25 17:06 56.72357 48.40413 33638 ft 411 kts 272°
2026-04-25 17:07 56.72396 48.29997 33636 ft 411 kts 272°
2026-04-25 17:07 56.72423 48.19663 33636 ft 411 kts 272°
2026-04-25 17:08 56.72441 48.09272 33649 ft 411 kts 272°
2026-04-25 17:08 56.72456 47.98863 33633 ft 411 kts 272°
2026-04-25 17:09 56.72459 47.88470 33609 ft 411 kts 272°
2026-04-25 17:09 56.72452 47.78080 33639 ft 410 kts 272°
2026-04-25 17:10 56.72441 47.67705 33648 ft 410 kts 272°
2026-04-25 17:10 56.72425 47.57341 33643 ft 409 kts 271°
2026-04-25 17:11 56.72396 47.46976 33643 ft 409 kts 271°
2026-04-25 17:11 56.72366 47.36615 33653 ft 409 kts 271°
2026-04-25 17:12 56.72319 47.26323 33654 ft 409 kts 271°
2026-04-25 17:12 56.72254 47.15956 33654 ft 409 kts 271°
2026-04-25 17:13 56.72211 47.09023 33468 ft 410 kts 271°
2026-04-25 17:13 56.72157 47.00409 33025 ft 409 kts 271°
2026-04-25 17:13 56.72121 46.95243 32773 ft 408 kts 271°
2026-04-25 17:14 56.72082 46.90080 32514 ft 407 kts 271°
2026-04-25 17:14 56.72041 46.84929 32245 ft 407 kts 272°
2026-04-25 17:14 56.71996 46.79792 31982 ft 405 kts 272°
2026-04-25 17:14 56.71950 46.74687 31725 ft 402 kts 272°
2026-04-25 17:15 56.71900 46.69610 31468 ft 400 kts 272°
2026-04-25 17:15 56.71851 46.64631 31209 ft 397 kts 272°
2026-04-25 17:15 56.71799 46.59622 30966 ft 395 kts 272°
2026-04-25 17:15 56.71746 46.54647 30725 ft 392 kts 272°
2026-04-25 17:16 56.71694 46.49701 30480 ft 390 kts 272°
2026-04-25 17:16 56.71658 46.46373 30315 ft 388 kts 272°
2026-04-25 17:16 56.71586 46.39895 29994 ft 385 kts 273°
2026-04-25 17:16 56.71549 46.36683 29833 ft 383 kts 273°
2026-04-25 17:17 56.71470 46.30223 29429 ft 380 kts 272°
2026-04-25 17:17 56.71428 46.27045 29237 ft 378 kts 272°
2026-04-25 17:17 56.71363 46.22270 28957 ft 377 kts 272°
2026-04-25 17:17 56.71296 46.17518 28665 ft 375 kts 272°
2026-04-25 17:18 56.71231 46.12782 28383 ft 373 kts 272°
2026-04-25 17:18 56.71164 46.08125 28013 ft 364 kts 272°
2026-04-25 17:18 56.71096 46.03560 27565 ft 357 kts 272°
2026-04-25 17:18 56.71027 45.99094 27147 ft 350 kts 272°
2026-04-25 17:19 56.70957 45.94712 26709 ft 343 kts 272°
2026-04-25 17:19 56.70889 45.90416 26278 ft 337 kts 272°
2026-04-25 17:19 56.70748 45.86192 25867 ft 333 kts 270°
2026-04-25 17:19 56.70528 45.82006 25455 ft 331 kts 269°
2026-04-25 17:20 56.70268 45.77846 25054 ft 330 kts 268°
2026-04-25 17:20 56.69998 45.73720 24654 ft 328 kts 268°
2026-04-25 17:20 56.69732 45.69611 24266 ft 326 kts 268°
2026-04-25 17:20 56.69479 45.65576 23878 ft 324 kts 269°
2026-04-25 17:21 56.69233 45.61509 23482 ft 322 kts 269°
2026-04-25 17:21 56.68993 45.57471 23063 ft 321 kts 269°
2026-04-25 17:21 56.68756 45.53452 22650 ft 319 kts 268°
2026-04-25 17:21 56.68518 45.49459 22250 ft 317 kts 268°
2026-04-25 17:22 56.68279 45.45482 21854 ft 315 kts 268°
2026-04-25 17:22 56.68122 45.42863 21582 ft 314 kts 268°
2026-04-25 17:22 56.67803 45.37604 21060 ft 312 kts 268°
2026-04-25 17:22 56.67561 45.33699 20657 ft 310 kts 268°
2026-04-25 17:23 56.67319 45.29809 20255 ft 309 kts 268°
2026-04-25 17:23 56.67079 45.25937 19861 ft 307 kts 268°
2026-04-25 17:23 56.66839 45.22090 19458 ft 306 kts 268°
2026-04-25 17:23 56.66599 45.18265 19074 ft 304 kts 268°
2026-04-25 17:24 56.66361 45.14454 18674 ft 303 kts 267°
2026-04-25 17:24 56.66123 45.10653 18286 ft 302 kts 267°
2026-04-25 17:24 56.65882 45.06875 17883 ft 301 kts 267°
2026-04-25 17:24 56.65643 45.03162 17475 ft 299 kts 267°
2026-04-25 17:25 56.65404 44.99422 17095 ft 297 kts 267°
2026-04-25 17:25 56.65086 44.95717 16706 ft 298 kts 259°
2026-04-25 17:25 56.64367 44.92185 16338 ft 301 kts 248°
2026-04-25 17:25 56.63233 44.88973 15955 ft 304 kts 237°
2026-04-25 17:26 56.61926 44.85962 15548 ft 302 kts 236°
2026-04-25 17:26 56.60639 44.82982 15188 ft 299 kts 237°
2026-04-25 17:26 56.59361 44.80017 14816 ft 297 kts 237°
2026-04-25 17:26 56.58095 44.77074 14448 ft 295 kts 237°
2026-04-25 17:27 56.56836 44.74154 14075 ft 293 kts 236°
2026-04-25 17:27 56.55584 44.71249 13702 ft 291 kts 236°
2026-04-25 17:27 56.54341 44.68370 13318 ft 289 kts 236°
2026-04-25 17:27 56.53521 44.66476 13043 ft 288 kts 236°
2026-04-25 17:28 56.51872 44.62672 12556 ft 286 kts 236°
2026-04-25 17:28 56.50643 44.59844 12187 ft 285 kts 236°
2026-04-25 17:28 56.49424 44.57044 11814 ft 283 kts 236°
2026-04-25 17:28 56.48205 44.54254 11443 ft 282 kts 236°
2026-04-25 17:29 56.46993 44.51485 11097 ft 278 kts 236°
2026-04-25 17:29 56.45808 44.48776 10811 ft 272 kts 236°
2026-04-25 17:29 56.44652 44.46122 10607 ft 267 kts 236°
2026-04-25 17:29 56.43503 44.43481 10479 ft 267 kts 236°
2026-04-25 17:30 56.42355 44.40846 10355 ft 267 kts 236°
2026-04-25 17:30 56.41208 44.38220 10203 ft 267 kts 236°
2026-04-25 17:30 56.40062 44.35601 9827 ft 265 kts 235°
2026-04-25 17:30 56.38917 44.32993 9388 ft 264 kts 235°
2026-04-25 17:31 56.37776 44.30399 8956 ft 263 kts 235°
2026-04-25 17:31 56.36644 44.27834 8532 ft 261 kts 234°
2026-04-25 17:31 56.35517 44.25288 8123 ft 259 kts 234°
2026-04-25 17:31 56.34399 44.22764 7715 ft 257 kts 234°
2026-04-25 17:32 56.33306 44.20287 7319 ft 255 kts 234°
2026-04-25 17:32 56.32206 44.17795 6911 ft 253 kts 234°
2026-04-25 17:32 56.31226 44.15202 6513 ft 248 kts 249°
2026-04-25 17:32 56.30844 44.12224 6121 ft 243 kts 270°
2026-04-25 17:33 56.31123 44.09259 5683 ft 241 kts 291°
2026-04-25 17:33 56.31974 44.06683 5267 ft 240 kts 305°
2026-04-25 17:33 56.32953 44.04259 4851 ft 239 kts 305°
2026-04-25 17:33 56.33921 44.01833 4440 ft 238 kts 304°
2026-04-25 17:34 56.34882 43.99406 4018 ft 237 kts 304°
2026-04-25 17:34 56.35835 43.96993 3632 ft 235 kts 304°
2026-04-25 17:34 56.36756 43.94667 3570 ft 220 kts 304°
2026-04-25 17:34 56.37629 43.92467 3517 ft 213 kts 304°
2026-04-25 17:35 56.38477 43.90286 3468 ft 212 kts 300°
2026-04-25 17:35 56.38853 43.87765 3418 ft 211 kts 267°
2026-04-25 17:35 56.38374 43.85319 3348 ft 206 kts 236°
2026-04-25 17:35 56.37230 43.83837 3054 ft 205 kts 199°
2026-04-25 17:36 56.35904 43.83336 2864 ft 187 kts 195°
2026-04-25 17:36 56.34670 43.82881 2504 ft 180 kts 196°
2026-04-25 17:36 56.33481 43.82442 2247 ft 168 kts 196°
2026-04-25 17:36 56.32377 43.82036 1998 ft 156 kts 196°
2026-04-25 17:37 56.31342 43.81654 1784 ft 149 kts 196°
2026-04-25 17:37 56.30332 43.81281 1576 ft 147 kts 196°
2026-04-25 17:37 56.29330 43.80912 1373 ft 147 kts 196°
2026-04-25 17:37 56.28333 43.80545 1161 ft 146 kts 195°
2026-04-25 17:38 56.27344 43.80181 952 ft 145 kts 194°
2026-04-25 17:38 56.26693 43.79942 822 ft 144 kts 194°
2026-04-25 17:38 56.25383 43.79463 559 ft 143 kts 193°
2026-04-25 17:38 56.24413 43.79101 363 ft 142 kts 191°
2026-04-25 17:39 56.23469 43.78750 268 ft 130 kts 192°
2026-04-25 17:39 56.22713 43.78484 266 ft 85 kts 192°
2026-04-25 17:39 56.22286 43.78324 267 ft 40 kts 192°
2026-04-25 17:39 56.22116 43.78263 267 ft 12 kts 192°
2026-04-25 17:40 56.22036 43.78233 267 ft 12 kts 192°
2026-04-25 17:40 56.21960 43.78248 266 ft 11 kts 135°
2026-04-25 17:40 56.21939 43.78370 267 ft 10 kts 101°
2026-04-25 17:40 56.21924 43.78485 266 ft 9 kts 102°
2026-04-25 17:41 56.21920 43.78522 266 ft 0 kts 102°
2026-04-25 17:41 56.21920 43.78525 266 ft 2 kts 102°
2026-04-25 17:41 56.21912 43.78611 266 ft 10 kts 86°
2026-04-25 17:41 56.21939 43.78698 266 ft 7 kts 46°
2026-04-25 17:42 56.21952 43.78765 266 ft 5 kts 91°
2026-04-25 17:42 56.21952 43.78771 266 ft 0 kts 93°
2026-04-25 17:42 56.21951 43.78781 266 ft 1 kts 97°
2026-04-25 17:42 56.21948 43.78803 266 ft 0 kts 101°
2026-04-25 17:43 56.21947 43.78816 266 ft 1 kts 101°
2026-04-25 17:43 56.21947 43.78818 266 ft 0 kts 101°